Regional Weather Roundup
Issued by NWS Memphis, TN

Home | Current Version | Previous Version | Text Only | Print | Product List | Glossary On
Versions: 1 2 3 4 5 6 7 8 9 10 11 12 13 14 15 16 17 18 19 20 21 22 23 24 25 26 27 28 29 30 31 32 33 34 35 36 37 38 39 40 41 42 43 44 45 46 47 48 49 50
000
ASUS44 KMEG 251100
RWRMEG
MEMPHIS CWA HOURLY WEATHER ROUNDUP
NATIONAL WEATHER SERVICE MEMPHIS TN
600 AM CDT SUN SEP 25 2016

...WEST TENNESSEE...

CITY           SKY/WX    TMP DP  RH WIND       PRES   REMARKS
MEMPHIS INTL   CLEAR     75  66  73 CALM      30.04R
NWS MEMPHIS      N/A     70 N/A N/A MISG        N/A
JACKSON          N/A    N/A N/A N/A MISG      30.06R
DYERSBURG      CLEAR    N/A N/A N/A MISG        N/A
PARIS          CLEAR     64  64 100 CALM      30.08R


...EASTERN ARKANSAS...

CITY           SKY/WX    TMP DP  RH WIND       PRES   REMARKS
JONESBORO      CLEAR     70  67  90 CALM      30.04R
WEST MEMPHIS   PTCLDY    70  67  90 CALM      30.02S
BATESVILLE     CLEAR     70  66  88 CALM      30.05R
NEWPORT        CLEAR     69  68  96 CALM      30.04R
WALNUT RIDGE   CLEAR     72  66  83 NE5       30.04R
BLYTHEVILLE    CLEAR     71  67  87 E6        30.05R
SEARCY         CLEAR     71  71 100 CALM      30.05R
STUTTGART      PTCLDY    72  66  83 W6        30.04R
PINE BLUFF     CLEAR     70  69  97 CALM      30.03S
MONTICELLO     CLEAR     71  69  93 CALM      30.03S


...NORTH MISSISSIPPI...

CITY           SKY/WX    TMP DP  RH WIND       PRES   REMARKS
TUPELO         PTCLDY    68  64  87 N3        30.05R
TUNICA         CLEAR     70  64  83 E6        30.03F
CLARKSDALE       N/A     72  72 100 CALM      30.02S
GREENWOOD      CLEAR     70  67  90 CALM      30.03R
COLUMBUS       PTCLDY    68  65  89 CALM      30.03R
STARKVILLE     MOCLDY    70  66  88 CALM      30.05R
GOLDEN TRIANGL CLEAR     68  61  77 N5        30.03R


...SOUTHEAST MISSOURI...

CITY           SKY/WX    TMP DP  RH WIND       PRES   REMARKS
KENNETT        CLEAR     70  68  94 CALM      30.04R
WEST PLAINS    CLEAR     66  63  90 CALM      30.10R
CAPE GIRARDEAU PTCLDY    66  64  93 CALM      30.05S FOG


...NORTHWEST ALABAMA...

CITY           SKY/WX    TMP DP  RH WIND       PRES   REMARKS
MUSCLE SHOALS  CLEAR     65  61  87 CALM      30.08R


...MIDDLE TENNESSEE...

CITY           SKY/WX    TMP DP  RH WIND       PRES   REMARKS
NASHVILLE      CLEAR     66  63  90 S3        30.09R
CLARKSVILLE    LGT RAIN  63  62  97 CALM      30.09R FOG


...WESTERN KENTUCKY...

CITY           SKY/WX    TMP DP  RH WIND       PRES   REMARKS
PADUCAH        CLEAR     67  65  93 CALM      30.05S FOG
FORT CAMPBELL  CLEAR     66  66 100 CALM      30.08R


...CENTRAL ARKANSAS...

CITY           SKY/WX    TMP DP  RH WIND       PRES   REMARKS
LITTLE ROCK    PTCLDY    74  70  87 CALM      30.05S


SKY/WX REPORTED AS FAIR MEANS FEW OR NO CLOUDS BELOW
12 THOUSAND FEET.




USA.gov is the U.S. government's official web portal to all federal, state and local government web resources and services.